TimeMST,TemperatureF,Dew PointF,Humidity,Sea Level PressureIn,VisibilityMPH,Wind Direction,Wind SpeedMPH,Gust SpeedMPH,PrecipitationIn,Events,Conditions,WindDirDegrees,DateUTC
12:00 AM,26.6,26.6,100,29.82,7.0,North,8.1,-,N/A,,Overcast,10,2012-12-07 07:00:00
12:08 AM,26.6,26.6,100,29.82,8.0,NNE,9.2,-,N/A,,Overcast,20,2012-12-07 07:08:00
12:30 AM,26.6,26.6,100,29.82,1.8,North,5.8,-,0.00,Snow,Light Snow,350,2012-12-07 07:30:00
12:53 AM,27.0,26.1,96,29.89,1.2,North,5.8,-,0.03,Snow,Light Snow,360,2012-12-07 07:53:00
1:06 AM,26.6,26.6,100,29.82,1.0,North,5.8,-,0.01,Snow,Light Snow,360,2012-12-07 08:06:00
1:41 AM,26.6,26.6,100,29.82,1.8,NNW,5.8,-,0.04,Snow,Light Snow,340,2012-12-07 08:41:00
1:51 AM,26.6,26.6,100,29.83,2.0,NNW,5.8,-,0.04,Snow,Light Snow,330,2012-12-07 08:51:00
1:53 AM,27.0,26.1,96,29.89,2.0,NNW,4.6,-,0.04,Snow,Light Snow,340,2012-12-07 08:53:00
2:02 AM,26.6,26.6,100,29.82,3.0,NNW,4.6,-,0.00,Snow,Light Snow,340,2012-12-07 09:02:00
2:28 AM,26.6,26.6,100,29.84,3.0,WNW,6.9,-,0.00,Snow,Light Snow,300,2012-12-07 09:28:00
2:36 AM,26.6,26.6,100,29.83,2.0,NW,8.1,-,0.00,Snow,Light Snow,310,2012-12-07 09:36:00
2:53 AM,27.0,26.1,96,29.90,2.0,NW,6.9,-,0.01,Snow,Light Snow,320,2012-12-07 09:53:00
3:04 AM,26.6,26.6,100,29.83,1.8,NW,6.9,-,0.00,Snow,Light Snow,320,2012-12-07 10:04:00
3:27 AM,26.6,26.6,100,29.83,1.8,WNW,5.8,-,0.01,Snow,Light Snow,300,2012-12-07 10:27:00
3:34 AM,26.6,26.6,100,29.83,2.5,WNW,6.9,-,0.01,Snow,Light Snow,300,2012-12-07 10:34:00
3:41 AM,26.6,24.8,93,29.83,4.0,NW,8.1,-,0.01,Snow,Light Snow,320,2012-12-07 10:41:00
3:53 AM,25.0,25.0,100,29.90,4.0,NW,5.8,-,0.01,Snow,Light Snow,320,2012-12-07 10:53:00
4:22 AM,26.6,24.8,93,29.84,6.0,WNW,9.2,-,0.01,,Overcast,300,2012-12-07 11:22:00
4:33 AM,26.6,24.8,93,29.84,1.8,NW,10.4,-,0.01,Snow,Light Snow,310,2012-12-07 11:33:00
4:41 AM,26.6,26.6,100,29.84,3.0,NW,9.2,-,0.01,Snow,Light Snow,310,2012-12-07 11:41:00
4:53 AM,27.0,25.0,92,29.92,8.0,NW,9.2,-,0.01,,Overcast,310,2012-12-07 11:53:00
5:21 AM,26.6,24.8,93,29.84,10.0,WNW,8.1,-,N/A,,Overcast,300,2012-12-07 12:21:00
5:40 AM,26.6,24.8,93,29.84,10.0,WNW,9.2,-,N/A,,Overcast,300,2012-12-07 12:40:00
5:53 AM,26.1,25.0,96,29.93,10.0,WNW,8.1,-,N/A,,Overcast,290,2012-12-07 12:53:00
6:07 AM,26.6,24.8,93,29.85,10.0,WNW,11.5,-,N/A,,Overcast,300,2012-12-07 13:07:00
6:16 AM,26.6,24.8,93,29.85,10.0,NW,11.5,-,N/A,,Overcast,310,2012-12-07 13:16:00
6:50 AM,26.6,24.8,93,29.86,10.0,NW,10.4,-,N/A,,Overcast,320,2012-12-07 13:50:00
6:53 AM,27.0,24.1,89,29.94,10.0,NW,10.4,-,N/A,,Overcast,320,2012-12-07 13:53:00
7:30 AM,21.2,19.4,93,29.85,10.0,WNW,6.9,-,N/A,,Scattered Clouds,290,2012-12-07 14:30:00
7:53 AM,21.0,19.9,96,29.97,10.0,West,9.2,-,N/A,,Mostly Cloudy,260,2012-12-07 14:53:00
8:53 AM,21.0,19.0,92,29.99,10.0,West,9.2,-,N/A,,Clear,260,2012-12-07 15:53:00
9:19 AM,23.0,21.2,93,29.88,9.0,WSW,12.7,-,N/A,,Partly Cloudy,250,2012-12-07 16:19:00
9:53 AM,26.1,24.1,92,29.99,10.0,West,10.4,-,N/A,,Clear,260,2012-12-07 16:53:00
10:53 AM,30.0,24.1,79,29.98,10.0,West,11.5,-,N/A,,Mostly Cloudy,270,2012-12-07 17:53:00
11:53 AM,30.0,25.0,82,29.97,3.0,West,12.7,-,0.00,Snow,Light Snow,280,2012-12-07 18:53:00
12:17 PM,30.2,24.8,80,29.88,10.0,WNW,10.4,-,0.00,,Overcast,290,2012-12-07 19:17:00
12:53 PM,28.9,24.1,82,29.96,10.0,West,8.1,-,0.00,,Clear,280,2012-12-07 19:53:00
1:53 PM,30.9,25.0,79,29.94,10.0,West,9.2,-,N/A,,Scattered Clouds,260,2012-12-07 20:53:00
2:53 PM,30.0,24.1,79,29.94,10.0,WSW,9.2,-,N/A,,Clear,250,2012-12-07 21:53:00
3:53 PM,26.1,21.0,81,29.96,10.0,Calm,Calm,-,N/A,,Clear,0,2012-12-07 22:53:00
4:53 PM,19.0,15.1,85,29.98,10.0,SSW,3.5,-,N/A,,Clear,200,2012-12-07 23:53:00
5:53 PM,21.0,17.1,85,29.97,10.0,Calm,Calm,-,N/A,,Clear,0,2012-12-08 00:53:00
6:53 PM,19.0,15.1,85,29.97,10.0,Variable,3.5,-,N/A,,Clear,0,2012-12-08 01:53:00
7:53 PM,21.0,17.1,85,29.95,10.0,Calm,Calm,-,N/A,,Clear,0,2012-12-08 02:53:00
8:53 PM,21.0,15.1,78,29.91,10.0,South,11.5,-,N/A,,Clear,180,2012-12-08 03:53:00
9:53 PM,21.0,12.9,71,29.88,10.0,South,12.7,-,N/A,,Clear,170,2012-12-08 04:53:00
10:53 PM,23.0,14.0,68,29.83,10.0,SSE,13.8,-,N/A,,Clear,160,2012-12-08 05:53:00
11:53 PM,23.0,15.1,72,29.79,10.0,South,15.0,-,N/A,,Clear,170,2012-12-08 06:53:00